Погода Кемь-Порт

Погода Кемь-Порт : погода сейчас, прогноз погоды и архив. Всё, что Вы хотите узнать о погоде Кемь-Порт!

Поиск расширенной информации на нашем сайте:

Другие новости

Новости СМИ2

Главная страница сайта

Новости сайта

02.10.2013

Напоминаем, что на нашем новом сайте вы можете получить высокодетализированные прогнозы погоды по пунктам России, СНГ и мира (включающие важные для авиации метеовеличины, такие как направление и скорость ветра, видимость, явления погоды, количество и форма облачности, нижняя и верхняя граница облачности), а также ознакомиться с разнообразными материалами по авиационной метеорологии и подборкой полезных ссылок на эту тему.

Сайт Метеоцентр.Азия посвящён разработке технологий оптимизации авиаметеорологического обслуживания, включая проектирование и перспективное создание нескольких автоматизированных авиаметеорологических систем:
- система выпуска высокодетальных прогностических карт явлений погоды для нижнего воздушного пространства по России и ближнему зарубежью;
- система верификации прогнозов TAF (выпускаемых синоптиками официальных АМСГ РФ и ближнего зарубежья) и AUTOTAF (выпускаемых сайтом Метеоцентр.Азия) - выявление ошибок, онлайн-сопоставление с фактической погодой METAR, автоматическое внесение коррективов в прогнозы при резком отклонении фактической погоды от прогноза, подсчёт оправдываемости прогнозов по элементам и в целом;
- система обработки, анализа и отображения авиаметеорологической информации для применения провайдерами метеорологической информации.


Погода Кемь-Порт - сегодня

Время (UTC), дата Ветер
(°,м/с) 
Видим.   Явления Облачность Т
(°С)
Тd
(°С)
f(%) Тe
(°С)
Pmin
(гПа)
dP
(гПа)
Po
(мм)
O2
(г/м3)
Тmin Tmax R s Состояние
почвы
12 19.02.17 350 (С) 20000 м    3/0 верхняя 
[Ci fib]
-8.4 -10.3 86 -8  994.6  -1.8  745  311           
15 19.02.17 080 (В) 20000 м    10/10 570 м 
[Sc]
-6.6 -8.6 86 -8  992.7  -2  744  308           
18 19.02.17 090 (В) 20000 м    10/10 540 м 
[Sc]
-6.5 -8 89 -9  990.8  -1.8  742  307    -6.5       
21 19.02.17 060 (СВ) 20000 м    10/10 570 м 
[Sc]
-6.7 -9 84 -11  989  -1.8  741  307           
00 20.02.17 060 (СВ) 20000 м    10/10 660 м 
[Sc]
-6.6 -8.4 87 -10  986.6  -2.4  739  306           
03 20.02.17 040 (СВ) 20000 м    10/6 300 м средняя 
[Sc|Ac As]
-6.5 -8.7 84 -10  986.1  -0.5  739  306  -7         
06 20.02.17 350 (С) 2000 м  снег  10/3 300 м средняя 
[Sc|Ac As]
-6.9 -8 92 -10  986.6  0.5  739  306  -7    0.3  10  равномерный
сухой снег
100% 
09 20.02.17 320 (СЗ) 20000 м  {снег}  3/0 верхняя 
[Ci fib]
-8.3 -10.9 81 -10  988.1  1.4  740  309           
12 20.02.17 290 (З) 20000 м  {снег}  3/0 верхняя 
[Ci fib]
-8.6 -11.9 77 -11  989.4  1.3  741  310           
15 20.02.17 290 (З) 20000 м    3/0 верхняя 
[Ci fib]
-12.1 -13.5 89 -14  989.7  0.3  742  314      0.7     
18 20.02.17 260 (З) 4000 м  слаб. снег  10/10 400 м 
[Ns]
-14 -15.3 90 -16  989.5  -0.2  741  316    -6.9  0.6     
21 20.02.17 280 (З) 10 км  {снег}  10/10 300 м 
[Sc]
-14.5 -15.8 90 -15  988.7  -0.8  741  317           
00 21.02.17 250 (З) 10 км  слаб. снег  10/10 450 м 
[Ns]
-14.6 -16 89 -15  988.4  -0.3  741  317           
03 21.02.17 210 (ЮЗ) 20000 м  {снег}  10/4 300 м средняя 
[Sc|Ac As]
-17.2 -18.9 87 -17  987.6  -0.8  740  320  -17.5    0.4     
06 21.02.17 230 (ЮЗ) 10 км  {снег}  9/3 600 м средняя, верхняя 
[Sc|Ac As|Cs]
-17.2 -18.8 87 -17  987.5  0.1  740  320  -18.1    0.2  10  равномерный
сухой снег
100% 
09 21.02.17 тихо ()   4000 м  слаб. ливневой снег  9/8 300 м кучево-дожд., средняя 
[Cb cap|As trans]
-12 -13.2 91 -12  988.5  741  313           
12 21.02.17 130 (ЮВ) 20000 м  {ливн. осадки}  9/3 300 м верхняя 
[Sc|Cs]
-10.8 -12.4 88 -11  989.2  0.7  741  312           
15 21.02.17 290 (З) 20000 м    1/0 
[]
-13.2 -14.7 88 -15  990.6  1.4  742  316      0.0     
18 21.02.17 110 (В) 62  20000 м    1/0 
-17.6   992.1  1.4  743      -9.6  0.0     
21 21.02.17 260 (З) 20000 м    ясно 
-18 -19.6 87 -21  993.1  1.1  744  323           
00 22.02.17 250 (З) 20000 м    ясно 
-19.5 -21.3 86 -20  994.1  745  325           
03 22.02.17 250 (З) 20000 м    ясно 
-19.3 -21 86 -22  994.9  0.8  746  325  -20.2         
06 22.02.17 240 (ЮЗ) 20000 м  в посл. час ливневой снег  9/4 300 м кучево-дожд., верхняя 
[Cb cap|Ci fib]
-18.9 -20.6 86 -22  995.6  0.7  746  325  -20.3    0.0  10  равномерный
сухой снег
100% 
09 22.02.17 240 (ЮЗ) 20000 м    3/0 
-15 -16.8 86 -17  997.7  748  320           
12 22.02.17 180 (Ю) 20000 м    3/0 верхняя 
[Ci fib]
-12.5 -15 82 -15  995.5  -2.2  746  316           
Время (UTC), дата Ветер
(°,м/с) 
Видим.   Явления Облачность Т
(°С)
Тd
(°С)
f(%) Тe
(°С)
Pmin
(гПа)
dP
(гПа)
Po
(мм)
O2
(г/м3)
Тmin Tmax R s Состояние
почвы

Для получения пояснительной информации подведите курсор к названию столбца.

ПОГОДА Кемь-Порт - архив

Всё, что Вы хотите узнать о погоде Кемь-Порт - удобно и подробно!

Выберите нужную дату (начиная с 1 января 2015* года) и нажмите кнопку "Найти".
Будут отображены архивные сводки погоды по пункту Кемь-Порт, начиная с указанной даты.


Отображать данные в формате CSV (для использования в таблицах Excel)


Внимание! Наш архив погоды предназначен исключительно для личного некоммерческого использования в познавательных целях. Если Вам необходимы официальные справки о состоянии погоды (для производственных, юридических, коммерческих и т.п. целей), обращайтесь в органы Росгидромета.

*Примечание: данная дата относится к архиву по метеостанциям СССР (Россия, СНГ, Балтия).
Архив по метеостанциям Зарубежной Европы и Азии (кроме Китая) хранится 10 дней, по другим регионам земного шара (Китай, Африка, Америка, Австралия, Океания) - 1 день.

Кемь-Порт - район местоположения метеостанции


Название, широта, долгота, высота метеостанции:
Кемь-Порт 64.98°ш. 34.80°д. 8 м над ур. моря [Российская Федерация]

Дополнительная информация

В oтличие oт бoльшинства пoгoдных сайтoв мы публикуем пoдрoбную метеoинфoрмацию в детальнoм прoфессиoнальнoм фoрмате.

Характеристики температуры и влажнoсти вoздуха измеряются на высoте 2 м в тени вдали oт зданий и деревьев.
Скoрoсть ветра измеряется на высoте 10 м (на урoвне рoста челoвека скoрoсть ветра ниже в 1.5-2 раза). Если метеoстанция нахoдится в гoрoде или в лесу, тo скoрoсть ветра занижена на 2-4 м/с пo сравнению с oткрытым местoм. Скoрoсть ветра над акватoриями крупных рек и oзёр, а также на вершинах хoлмoв на 2-5 м/с выше, чем в oбычных услoвиях.
Атмoсфернoе давление в разных тoчках местнoсти мoжет значительнo oтличаться oт давления на метеoстанции, в зависимoсти oт услoвий рельефа (при пoдъёме на 10 м давление пoнижается примернo на 1 мм рт.ст.).